Starlink 32414

operational
NORAD ID: 61667 Int'l Des: 2024-193 Owner: SPXS Country: US Constellation: starlink
LEOCIRCULAR

关于 Starlink 32414

正在加载描述...

实时位置

正在加载3D地球...

即将过境

高度历史

Altitude vs Time

uPlot chart will show altitude changes over time

两行轨道根数

1 61667U 24193G 25351.32681157 -.00000345 00000-0 47228-6 0 9996
2 61667 53.1594 113.7803 0001103 89.6738 270.4389 15.30190118 63915
Epoch: Dec 17, 2025 • Age: 8 hours

当前状态

高度 478.5 km
速度 7.63 km/s
星下点 41.44°N, 78.85°W
发射日期 Oct 26, 2024
运行时间 1.1 years
类型 internet

技术详情

分类 Payload
质量 730.00 kg
干质量 700.00 kg
总质量 730.00 kg
长度 0.30 m
直径 4.10 m
跨度 29.00 m
形状 Box + pan
制造商 SPXS
平台类型 Starlink V2M
阶段状态 In Orbit
所有者/国家 SPXS/US

大型星座

Loading constellations...